Time,TemperatureF,DewpointF,PressureIn,WindDirection,WindDirectionDegrees,WindSpeedMPH,WindSpeedGustMPH,Humidity,HourlyPrecipIn,Conditions,Clouds,dailyrainin,SoftwareType,DateUTC
2013-03-28 00:02:00,34.0,-99.9,-100.00,North,0,0.0,0.0,-999,0.00,,,-99.99,,2013-03-28 06:02:00,
2013-03-28 00:13:00,34.0,-99.9,-100.00,North,0,0.0,0.0,-999,0.00,,,-99.99,,2013-03-28 06:13:00,
2013-03-28 00:22:00,34.0,-99.9,-100.00,North,0,0.0,0.0,-999,0.00,,,-99.99,,2013-03-28 06:22:00,
2013-03-28 00:33:00,34.0,-99.9,-100.00,North,0,0.0,0.0,-999,0.00,,,-99.99,,2013-03-28 06:33:00,
2013-03-28 00:43:00,34.0,-99.9,-100.00,North,0,0.0,0.0,-999,0.00,,,-99.99,,2013-03-28 06:43:00,
2013-03-28 00:52:00,33.0,-99.9,-100.00,North,0,0.0,0.0,-999,0.00,,,-99.99,,2013-03-28 06:52:00,
2013-03-28 01:02:00,33.0,-99.9,-100.00,East,87,1.0,5.0,-999,0.00,,,-99.99,,2013-03-28 07:02:00,
2013-03-28 01:13:00,33.0,-99.9,-100.00,East,87,1.0,5.0,-999,0.00,,,-99.99,,2013-03-28 07:13:00,
2013-03-28 01:22:00,34.0,-99.9,-100.00,North,0,0.0,0.0,-999,0.00,,,-99.99,,2013-03-28 07:22:00,
2013-03-28 01:32:00,34.0,-99.9,-100.00,ESE,107,1.0,3.0,-999,0.00,,,-99.99,,2013-03-28 07:32:00,
2013-03-28 01:42:00,34.0,-99.9,-100.00,ESE,107,1.0,3.0,-999,0.00,,,-99.99,,2013-03-28 07:42:00,
2013-03-28 01:52:00,34.0,-99.9,-100.00,North,0,0.0,0.0,-999,0.00,,,-99.99,,2013-03-28 07:52:00,
2013-03-28 02:03:00,34.0,-99.9,-100.00,North,0,0.0,0.0,-999,0.00,,,-99.99,,2013-03-28 08:03:00,
2013-03-28 02:12:00,34.0,-99.9,-100.00,North,0,0.0,0.0,-999,0.00,,,-99.99,,2013-03-28 08:12:00,
2013-03-28 02:22:00,34.0,-99.9,-100.00,North,0,0.0,0.0,-999,0.00,,,-99.99,,2013-03-28 08:22:00,
2013-03-28 02:33:00,35.0,-99.9,-100.00,North,0,0.0,0.0,-999,0.00,,,-99.99,,2013-03-28 08:33:00,
2013-03-28 02:42:00,35.0,-99.9,-100.00,North,0,0.0,0.0,-999,0.00,,,-99.99,,2013-03-28 08:42:00,
2013-03-28 02:52:00,34.0,-99.9,-100.00,North,0,0.0,0.0,-999,0.00,,,-99.99,,2013-03-28 08:52:00,
2013-03-28 03:02:00,34.0,-99.9,-100.00,North,0,0.0,0.0,-999,0.00,,,-99.99,,2013-03-28 09:02:00,
2013-03-28 03:12:00,34.0,-99.9,-100.00,North,0,0.0,0.0,-999,0.00,,,-99.99,,2013-03-28 09:12:00,
2013-03-28 03:22:00,33.0,-99.9,-100.00,North,0,0.0,0.0,-999,0.00,,,-99.99,,2013-03-28 09:22:00,
2013-03-28 03:33:00,33.0,-99.9,-100.00,North,0,0.0,0.0,-999,0.00,,,-99.99,,2013-03-28 09:33:00,
2013-03-28 03:42:00,32.0,-99.9,-100.00,North,0,0.0,0.0,-999,0.00,,,-99.99,,2013-03-28 09:42:00,
2013-03-28 03:53:00,32.0,-99.9,-100.00,North,0,0.0,0.0,-999,0.00,,,-99.99,,2013-03-28 09:53:00,
2013-03-28 04:03:00,32.0,-99.9,-100.00,North,0,0.0,0.0,-999,0.00,,,-99.99,,2013-03-28 10:03:00,
2013-03-28 04:12:00,32.0,-99.9,-100.00,North,0,0.0,0.0,-999,0.00,,,-99.99,,2013-03-28 10:12:00,
2013-03-28 04:22:00,32.0,-99.9,-100.00,North,0,0.0,0.0,-999,0.00,,,-99.99,,2013-03-28 10:22:00,
2013-03-28 04:33:00,31.0,-99.9,-100.00,North,0,0.0,0.0,-999,0.00,,,-99.99,,2013-03-28 10:33:00,
2013-03-28 04:43:00,31.0,-99.9,-100.00,North,0,0.0,0.0,-999,0.00,,,-99.99,,2013-03-28 10:43:00,
2013-03-28 04:53:00,31.0,-99.9,-100.00,North,0,0.0,0.0,-999,0.00,,,-99.99,,2013-03-28 10:53:00,
2013-03-28 05:03:00,32.0,-99.9,-100.00,North,0,0.0,0.0,-999,0.00,,,-99.99,,2013-03-28 11:03:00,
2013-03-28 05:12:00,32.0,-99.9,-100.00,North,0,0.0,0.0,-999,0.00,,,-99.99,,2013-03-28 11:12:00,
2013-03-28 05:23:00,32.0,-99.9,-100.00,North,0,0.0,0.0,-999,0.00,,,-99.99,,2013-03-28 11:23:00,
2013-03-28 05:32:00,31.0,-99.9,-100.00,North,0,0.0,0.0,-999,0.00,,,-99.99,,2013-03-28 11:32:00,
2013-03-28 05:43:00,31.0,-99.9,-100.00,North,0,0.0,0.0,-999,0.00,,,-99.99,,2013-03-28 11:43:00,
2013-03-28 05:52:00,30.0,-99.9,-100.00,North,0,0.0,0.0,-999,0.00,,,-99.99,,2013-03-28 11:52:00,
2013-03-28 06:02:00,31.0,-99.9,-100.00,North,0,0.0,0.0,-999,0.00,,,-99.99,,2013-03-28 12:02:00,
2013-03-28 06:12:00,31.0,-99.9,-100.00,North,0,0.0,0.0,-999,0.00,,,-99.99,,2013-03-28 12:12:00,
2013-03-28 06:22:00,30.0,-99.9,-100.00,North,0,0.0,0.0,-999,0.00,,,-99.99,,2013-03-28 12:22:00,
2013-03-28 06:33:00,29.0,-99.9,-100.00,North,0,0.0,0.0,-999,0.00,,,-99.99,,2013-03-28 12:33:00,
2013-03-28 06:42:00,29.0,-99.9,-100.00,North,0,0.0,0.0,-999,0.00,,,-99.99,,2013-03-28 12:42:00,
2013-03-28 06:52:00,28.0,-99.9,-100.00,North,0,0.0,0.0,-999,0.00,,,-99.99,,2013-03-28 12:52:00,
2013-03-28 07:02:00,29.0,-99.9,-100.00,North,0,0.0,0.0,-999,0.00,,,-99.99,,2013-03-28 13:02:00,
2013-03-28 07:12:00,29.0,-99.9,-100.00,North,0,0.0,0.0,-999,0.00,,,-99.99,,2013-03-28 13:12:00,
2013-03-28 07:22:00,30.0,-99.9,-100.00,North,0,0.0,0.0,-999,0.00,,,-99.99,,2013-03-28 13:22:00,
2013-03-28 07:32:00,31.0,-99.9,-100.00,North,0,0.0,0.0,-999,0.00,,,-99.99,,2013-03-28 13:32:00,
2013-03-28 07:42:00,31.0,-99.9,-100.00,North,0,0.0,0.0,-999,0.00,,,-99.99,,2013-03-28 13:42:00,
2013-03-28 07:52:00,31.0,-99.9,-100.00,North,0,0.0,0.0,-999,0.00,,,-99.99,,2013-03-28 13:52:00,
2013-03-28 08:02:00,31.0,-99.9,-100.00,North,0,0.0,0.0,-999,0.00,,,-99.99,,2013-03-28 14:02:00,
2013-03-28 08:12:00,31.0,-99.9,-100.00,North,0,0.0,0.0,-999,0.00,,,-99.99,,2013-03-28 14:12:00,
2013-03-28 08:23:00,32.0,-99.9,-100.00,North,0,0.0,0.0,-999,0.00,,,-99.99,,2013-03-28 14:23:00,
2013-03-28 08:33:00,32.0,-99.9,-100.00,North,0,0.0,0.0,-999,0.00,,,-99.99,,2013-03-28 14:33:00,
2013-03-28 08:42:00,32.0,-99.9,-100.00,North,0,0.0,0.0,-999,0.00,,,-99.99,,2013-03-28 14:42:00,
2013-03-28 08:52:00,34.0,-99.9,-100.00,North,0,0.0,0.0,-999,0.00,,,-99.99,,2013-03-28 14:52:00,
2013-03-28 09:02:00,34.0,-99.9,-100.00,East,90,4.0,6.0,-999,0.00,,,-99.99,,2013-03-28 15:02:00,
2013-03-28 09:12:00,34.0,-99.9,-100.00,East,90,4.0,6.0,-999,0.00,,,-99.99,,2013-03-28 15:12:00,
2013-03-28 09:22:00,35.0,-99.9,-100.00,NE,49,5.0,7.0,-999,0.00,,,-99.99,,2013-03-28 15:22:00,
2013-03-28 09:33:00,36.0,-99.9,-100.00,ENE,69,5.0,7.0,-999,0.00,,,-99.99,,2013-03-28 15:33:00,
2013-03-28 09:43:00,36.0,-99.9,-100.00,ENE,69,5.0,7.0,-999,0.00,,,-99.99,,2013-03-28 15:43:00,
2013-03-28 09:53:00,38.0,-99.9,-100.00,East,89,2.0,6.0,-999,0.00,,,-99.99,,2013-03-28 15:53:00,
2013-03-28 10:03:00,40.0,-99.9,-100.00,East,89,4.0,6.0,-999,0.00,,,-99.99,,2013-03-28 16:03:00,
2013-03-28 10:13:00,40.0,-99.9,-100.00,East,89,4.0,6.0,-999,0.00,,,-99.99,,2013-03-28 16:13:00,
2013-03-28 10:23:00,40.0,-99.9,-100.00,East,93,1.0,5.0,-999,0.00,,,-99.99,,2013-03-28 16:23:00,
2013-03-28 10:32:00,42.0,-99.9,-100.00,ESE,115,4.0,6.0,-999,0.00,,,-99.99,,2013-03-28 16:32:00,
2013-03-28 10:42:00,42.0,-99.9,-100.00,ESE,115,4.0,6.0,-999,0.00,,,-99.99,,2013-03-28 16:42:00,
2013-03-28 10:52:00,43.0,-99.9,-100.00,East,100,2.0,6.0,-999,0.00,,,-99.99,,2013-03-28 16:52:00,
2013-03-28 11:02:00,44.0,-99.9,-100.00,SE,135,2.0,6.0,-999,0.00,,,-99.99,,2013-03-28 17:02:00,
2013-03-28 11:12:00,44.0,-99.9,-100.00,SE,135,2.0,6.0,-999,0.00,,,-99.99,,2013-03-28 17:12:00,
2013-03-28 11:22:00,46.0,-99.9,-100.00,ESE,115,1.0,4.0,-999,0.00,,,-99.99,,2013-03-28 17:22:00,
2013-03-28 11:32:00,46.0,-99.9,-100.00,SE,129,2.0,5.0,-999,0.00,,,-99.99,,2013-03-28 17:32:00,
2013-03-28 11:42:00,46.0,-99.9,-100.00,SE,129,2.0,5.0,-999,0.00,,,-99.99,,2013-03-28 17:42:00,
2013-03-28 11:53:00,47.0,-99.9,-100.00,ESE,104,1.0,3.0,-999,0.00,,,-99.99,,2013-03-28 17:53:00,
2013-03-28 12:03:00,48.0,-99.9,-100.00,SE,129,1.0,3.0,-999,0.00,,,-99.99,,2013-03-28 18:03:00,
2013-03-28 12:12:00,48.0,-99.9,-100.00,SE,129,1.0,3.0,-999,0.00,,,-99.99,,2013-03-28 18:12:00,
2013-03-28 12:22:00,49.0,-99.9,-100.00,East,96,1.0,6.0,-999,0.00,,,-99.99,,2013-03-28 18:22:00,
2013-03-28 12:32:00,49.0,-99.9,-100.00,ESE,107,0.0,5.0,-999,0.00,,,-99.99,,2013-03-28 18:32:00,
2013-03-28 12:42:00,49.0,-99.9,-100.00,ESE,107,0.0,5.0,-999,0.00,,,-99.99,,2013-03-28 18:42:00,
2013-03-28 12:53:00,50.0,-99.9,-100.00,South,180,3.0,6.0,-999,0.00,,,-99.99,,2013-03-28 18:53:00,
2013-03-28 13:02:00,51.0,-99.9,-100.00,SE,142,2.0,5.0,-999,0.00,,,-99.99,,2013-03-28 19:02:00,
2013-03-28 13:12:00,51.0,-99.9,-100.00,SE,142,2.0,5.0,-999,0.00,,,-99.99,,2013-03-28 19:12:00,
2013-03-28 13:23:00,52.0,-99.9,-100.00,SSE,162,1.0,5.0,-999,0.00,,,-99.99,,2013-03-28 19:23:00,
2013-03-28 13:33:00,53.0,-99.9,-100.00,SE,141,1.0,5.0,-999,0.00,,,-99.99,,2013-03-28 19:33:00,
2013-03-28 13:43:00,53.0,-99.9,-100.00,SE,141,1.0,5.0,-999,0.00,,,-99.99,,2013-03-28 19:43:00,
2013-03-28 13:53:00,54.0,-99.9,-100.00,ESE,120,2.0,6.0,-999,0.00,,,-99.99,,2013-03-28 19:53:00,
2013-03-28 14:03:00,55.0,-99.9,-100.00,ESE,115,1.0,3.0,-999,0.00,,,-99.99,,2013-03-28 20:03:00,
2013-03-28 14:13:00,56.0,-99.9,-100.00,SSE,148,0.0,3.0,-999,0.00,,,-99.99,,2013-03-28 20:13:00,
2013-03-28 14:22:00,56.0,-99.9,-100.00,SSE,148,0.0,3.0,-999,0.00,,,-99.99,,2013-03-28 20:22:00,
2013-03-28 14:33:00,56.0,-99.9,-100.00,SSE,148,4.0,6.0,-999,0.00,,,-99.99,,2013-03-28 20:33:00,
2013-03-28 14:43:00,56.0,-99.9,-100.00,SSE,148,4.0,6.0,-999,0.00,,,-99.99,,2013-03-28 20:43:00,
2013-03-28 14:53:00,56.0,-99.9,-100.00,SSE,160,1.0,5.0,-999,0.00,,,-99.99,,2013-03-28 20:53:00,
2013-03-28 15:03:00,59.0,-99.9,-100.00,North,0,0.0,0.0,-999,0.00,,,-99.99,,2013-03-28 21:03:00,
2013-03-28 15:12:00,59.0,-99.9,-100.00,North,0,0.0,0.0,-999,0.00,,,-99.99,,2013-03-28 21:12:00,
2013-03-28 15:22:00,59.0,-99.9,-100.00,North,0,0.0,0.0,-999,0.00,,,-99.99,,2013-03-28 21:22:00,
2013-03-28 15:33:00,59.0,-99.9,-100.00,North,0,0.0,0.0,-999,0.00,,,-99.99,,2013-03-28 21:33:00,
2013-03-28 15:43:00,59.0,-99.9,-100.00,North,0,0.0,0.0,-999,0.00,,,-99.99,,2013-03-28 21:43:00,
2013-03-28 15:53:00,59.0,-99.9,-100.00,SSW,201,2.0,6.0,-999,0.00,,,-99.99,,2013-03-28 21:53:00,
2013-03-28 16:03:00,59.0,-99.9,-100.00,SSE,166,3.0,7.0,-999,0.00,,,-99.99,,2013-03-28 22:03:00,
2013-03-28 16:13:00,59.0,-99.9,-100.00,SSE,166,3.0,7.0,-999,0.00,,,-99.99,,2013-03-28 22:13:00,
2013-03-28 16:23:00,58.0,-99.9,-100.00,North,0,0.0,0.0,-999,0.00,,,-99.99,,2013-03-28 22:23:00,
2013-03-28 16:32:00,59.0,-99.9,-100.00,SSE,166,0.0,3.0,-999,0.00,,,-99.99,,2013-03-28 22:32:00,
2013-03-28 16:42:00,59.0,-99.9,-100.00,SSE,166,0.0,3.0,-999,0.00,,,-99.99,,2013-03-28 22:42:00,
2013-03-28 16:53:00,61.0,-99.9,-100.00,North,0,0.0,0.0,-999,0.00,,,-99.99,,2013-03-28 22:53:00,
2013-03-28 17:03:00,63.0,-99.9,-100.00,North,0,0.0,0.0,-999,0.00,,,-99.99,,2013-03-28 23:03:00,
2013-03-28 17:12:00,63.0,-99.9,-100.00,North,0,0.0,0.0,-999,0.00,,,-99.99,,2013-03-28 23:12:00,
2013-03-28 17:22:00,63.0,-99.9,-100.00,North,0,0.0,0.0,-999,0.00,,,-99.99,,2013-03-28 23:22:00,
2013-03-28 17:32:00,63.0,-99.9,-100.00,North,0,0.0,0.0,-999,0.00,,,-99.99,,2013-03-28 23:32:00,
2013-03-28 17:42:00,63.0,-99.9,-100.00,North,0,0.0,0.0,-999,0.00,,,-99.99,,2013-03-28 23:42:00,
2013-03-28 17:53:00,62.0,-99.9,-100.00,SSE,153,1.0,5.0,-999,0.00,,,-99.99,,2013-03-28 23:53:00,
2013-03-28 18:03:00,63.0,-99.9,-100.00,North,0,0.0,0.0,-999,0.00,,,-99.99,,2013-03-29 00:03:00,
2013-03-28 18:12:00,63.0,-99.9,-100.00,North,0,0.0,0.0,-999,0.00,,,-99.99,,2013-03-29 00:12:00,
2013-03-28 18:22:00,61.0,-99.9,-100.00,North,0,0.0,0.0,-999,0.00,,,-99.99,,2013-03-29 00:22:00,
2013-03-28 18:33:00,61.0,-99.9,-100.00,SE,139,1.0,3.0,-999,0.00,,,-99.99,,2013-03-29 00:33:00,
2013-03-28 18:43:00,61.0,-99.9,-100.00,SE,139,1.0,3.0,-999,0.00,,,-99.99,,2013-03-29 00:43:00,
2013-03-28 18:52:00,59.0,-99.9,-100.00,North,0,0.0,0.0,-999,0.00,,,-99.99,,2013-03-29 00:52:00,
2013-03-28 19:03:00,58.0,-99.9,-100.00,ESE,110,0.0,4.0,-999,0.00,,,-99.99,,2013-03-29 01:03:00,
2013-03-28 19:12:00,58.0,-99.9,-100.00,ESE,110,0.0,4.0,-999,0.00,,,-99.99,,2013-03-29 01:12:00,
2013-03-28 19:23:00,51.0,-99.9,-100.00,North,0,0.0,0.0,-999,0.00,,,-99.99,,2013-03-29 01:23:00,
2013-03-28 19:33:00,47.0,-99.9,-100.00,North,0,0.0,0.0,-999,0.00,,,-99.99,,2013-03-29 01:33:00,
2013-03-28 19:42:00,47.0,-99.9,-100.00,North,0,0.0,0.0,-999,0.00,,,-99.99,,2013-03-29 01:42:00,
2013-03-28 19:53:00,44.0,-99.9,-100.00,NE,52,1.0,5.0,-999,0.00,,,-99.99,,2013-03-29 01:53:00,
2013-03-28 20:03:00,43.0,-99.9,-100.00,North,0,0.0,0.0,-999,0.00,,,-99.99,,2013-03-29 02:03:00,
2013-03-28 20:12:00,43.0,-99.9,-100.00,North,0,0.0,0.0,-999,0.00,,,-99.99,,2013-03-29 02:12:00,
2013-03-28 20:22:00,42.0,-99.9,-100.00,North,0,0.0,0.0,-999,0.00,,,-99.99,,2013-03-29 02:22:00,
2013-03-28 20:33:00,42.0,-99.9,-100.00,North,0,0.0,0.0,-999,0.00,,,-99.99,,2013-03-29 02:33:00,
2013-03-28 20:42:00,42.0,-99.9,-100.00,North,0,0.0,0.0,-999,0.00,,,-99.99,,2013-03-29 02:42:00,
2013-03-28 20:53:00,40.0,-99.9,-100.00,North,0,0.0,0.0,-999,0.00,,,-99.99,,2013-03-29 02:53:00,
2013-03-28 21:03:00,39.0,-99.9,-100.00,North,0,0.0,0.0,-999,0.00,,,-99.99,,2013-03-29 03:03:00,
2013-03-28 21:12:00,39.0,-99.9,-100.00,North,0,0.0,0.0,-999,0.00,,,-99.99,,2013-03-29 03:12:00,
2013-03-28 21:22:00,39.0,-99.9,-100.00,North,0,0.0,0.0,-999,0.00,,,-99.99,,2013-03-29 03:22:00,
2013-03-28 21:33:00,39.0,-99.9,-100.00,East,80,1.0,5.0,-999,0.00,,,-99.99,,2013-03-29 03:33:00,
2013-03-28 21:43:00,39.0,-99.9,-100.00,East,80,1.0,5.0,-999,0.00,,,-99.99,,2013-03-29 03:43:00,
2013-03-28 21:53:00,39.0,-99.9,-100.00,East,84,3.0,6.0,-999,0.00,,,-99.99,,2013-03-29 03:53:00,
2013-03-28 22:03:00,38.0,-99.9,-100.00,North,0,0.0,0.0,-999,0.00,,,-99.99,,2013-03-29 04:03:00,
2013-03-28 22:13:00,38.0,-99.9,-100.00,North,0,0.0,0.0,-999,0.00,,,-99.99,,2013-03-29 04:13:00,
2013-03-28 22:23:00,37.0,-99.9,-100.00,North,0,0.0,0.0,-999,0.00,,,-99.99,,2013-03-29 04:23:00,
2013-03-28 22:33:00,38.0,-99.9,-100.00,North,0,0.0,0.0,-999,0.00,,,-99.99,,2013-03-29 04:33:00,
2013-03-28 22:43:00,38.0,-99.9,-100.00,North,0,0.0,0.0,-999,0.00,,,-99.99,,2013-03-29 04:43:00,
2013-03-28 22:53:00,37.0,-99.9,-100.00,SE,127,1.0,3.0,-999,0.00,,,-99.99,,2013-03-29 04:53:00,
2013-03-28 23:03:00,37.0,-99.9,-100.00,SE,127,1.0,5.0,-999,0.00,,,-99.99,,2013-03-29 05:03:00,
2013-03-28 23:13:00,37.0,-99.9,-100.00,SE,127,1.0,5.0,-999,0.00,,,-99.99,,2013-03-29 05:13:00,
2013-03-28 23:23:00,37.0,-99.9,-100.00,North,0,0.0,0.0,-999,0.00,,,-99.99,,2013-03-29 05:23:00,
2013-03-28 23:33:00,36.0,-99.9,-100.00,North,0,0.0,0.0,-999,0.00,,,-99.99,,2013-03-29 05:33:00,
2013-03-28 23:44:00,36.0,-99.9,-100.00,North,0,0.0,0.0,-999,0.00,,,-99.99,,2013-03-29 05:44:00,
2013-03-28 23:53:00,36.0,-99.9,-100.00,North,0,0.0,0.0,-999,0.00,,,-99.99,,2013-03-29 05:53:00,